This is the latest recevied weather packets stored in our database for station/object KF4WSW-13. If no packets are shown the sender has not sent any weather packets the latest 10 day(s).
| Time | Temp. | Humidity | Pressure | Rain* | Wind** | Luminosity | Snow |
|---|---|---|---|---|---|---|---|
| 1777758588 | 22.22° C | 96% | 1008.6 hPa | 0 mm | - | 48 W/m² | - |
| 1777758285 | 21.67° C | 95% | 1008.9 hPa | 0 mm | - | 51 W/m² | - |
| 1777757982 | 22.22° C | 96% | 1009.2 hPa | 0 mm | - | 54 W/m² | - |
| 1777757678 | 22.22° C | 96% | 1008.2 hPa | 0 mm | - | 40 W/m² | - |
| 1777757377 | 22.22° C | 96% | 1008.5 hPa | 0 mm | - | 38 W/m² | - |
| 1777757076 | 22.22° C | 96% | 1008.6 hPa | 0 mm | - | 48 W/m² | - |
| 1777756773 | 22.22° C | 96% | 1008.5 hPa | 0 mm | - | 53 W/m² | - |
| 1777756468 | 22.22° C | 96% | 1008.9 hPa | 0 mm | - | 49 W/m² | - |
| 1777756166 | 21.67° C | 96% | 1008.6 hPa | 0 mm | - | 39 W/m² | - |
| 1777755863 | 21.67° C | 96% | 1008 hPa | 1.78 mm | - | 56 W/m² | - |
| 1777755560 | 21.67° C | 96% | 1008 hPa | 1.78 mm | - | 50 W/m² | - |
| 1777755256 | 21.67° C | 96% | 1007.5 hPa | 0 mm | - | 48 W/m² | - |
| 1777754953 | 21.67° C | 96% | 1007.6 hPa | 0 mm | - | 57 W/m² | - |
| 1777754650 | 21.67° C | 96% | 1007.9 hPa | 0 mm | - | 52 W/m² | - |
| 1777754348 | 21.67° C | 96% | 1008.2 hPa | 1.27 mm | - | 50 W/m² | - |
| 1777754045 | 21.67° C | 96% | 1007.9 hPa | 1.27 mm | - | 52 W/m² | - |
| 1777753741 | 21.67° C | 96% | 1008.5 hPa | 1.78 mm | - | 53 W/m² | - |
| 1777753438 | 21.67° C | 96% | 1008.7 hPa | 3.56 mm | - | 48 W/m² | - |
| 1777753136 | 21.67° C | 96% | 1008.6 hPa | 3.05 mm | - | 48 W/m² | - |
| 1777752832 | 21.67° C | 96% | 1008.9 hPa | 3.05 mm | - | 37 W/m² | - |
| 1777752528 | 21.67° C | 96% | 1008.9 hPa | 3.05 mm | - | 36 W/m² | - |
| 1777752224 | 21.67° C | 96% | 1008.8 hPa | 3.05 mm | - | 42 W/m² | - |
| 1777751922 | 21.67° C | 96% | 1008.8 hPa | 3.05 mm | - | 57 W/m² | - |
| 1777751619 | 21.67° C | 96% | 1008.9 hPa | 1.27 mm | - | 66 W/m² | - |
| 1777751315 | 21.67° C | 96% | 1009 hPa | 1.78 mm | - | 66 W/m² | - |
* Rain latest hour (hover to see other rain measurements)
** Current wind speed in m/s (hover to see current wind gust speed)